Погода в Санбери

Австралия     37°34′46″S   144°43′29″E
темп.,
°C
ветер,
м/с
пор.,
м/с
влажн.,
%
обл.,
%
осадки,
мм/ч
давл.,
гПа
погр.,
м
11 апреля, вс
вс1101:00+5зюз613816 0.1 1012796
04:00+5зюз7148368 0.2 1012906
07:00+5юз7148364 0.1 1014825
10:00+9юз914628 0.3 10161606
13:00+11ююз91352100 0.3 10161985
16:00+10юз81363100 0.5 10171698
19:00+7юз6138099 0.3 1020718
22:00+7юз6128191 0.4 1021630
12 апреля, пн
пн1201:00+8юз51082100 0.3 1022603
04:00+8юз51083100 0.5 1022629
07:00+8ююз498488 0.3 1023473
10:00+10ююз487937 0.5 1024703
13:00+14ю575192 0.1 10221663
16:00+14ююв455116 0.1 10211395
19:00+9ююв128020 0.0 102326
22:00+8сз11888 0.0 102414
13 апреля, вт
вт1301:00+8ссз119043 0.0 102214
04:00+7ссз2289100 0.0 102118
07:00+7с4784100 0.0 1020134
10:00+13с71156100 0.0 1020689
13:00+16с81143100 0.0 1017989
16:00+14с81448100 0.0 10151057
19:00+15с91643100 0.0 1014973
22:00+15с9164494 0.0 1013967
14 апреля, ср
ср1401:00+14с91740100 0.0 1012709
04:00+15ссз81837100 0.0 1011988
07:00+13ссз51361100 0.1 1013749
10:00+13зсз4765100 0.1 1016836
13:00+18зюз56393 0.0 10141753
16:00+17зюз55427 0.0 10141780
19:00+13зсз345891 0.0 101693
22:00+13з255671 0.0 1017211
15 апреля, чт
чт1501:00+9ссз237929 0.0 101751
04:00+7ссз34834 0.0 101775
07:00+10ссз4768100 0.0 1017197
10:00+13сз595725 0.0 1017885
13:00+16зсз584986 0.1 10151700
16:00+14з61162100 0.3 10151600
19:00+12з5117994 0.4 1017871
22:00+8юз512879 0.9 1022559